Погода в Ишиме

Погода в Ишиме : погода сейчас, прогноз погоды и архив. Всё, что Вы хотите узнать о погоде в Ишиме!

Хотите узнать прогноз погоды в Ишиме? Тогда Вам сюда: Погода в Ишиме

Поиск расширенной информации на нашем сайте:

Другие новости

Новости СМИ2

Главная страница сайта

Новости сайта

02.10.2013

Напоминаем, что на нашем новом сайте вы можете получить высокодетализированные прогнозы погоды по пунктам России, СНГ и мира (включающие важные для авиации метеовеличины, такие как направление и скорость ветра, видимость, явления погоды, количество и форма облачности, нижняя и верхняя граница облачности), а также ознакомиться с разнообразными материалами по авиационной метеорологии и подборкой полезных ссылок на эту тему.

Сайт Метеоцентр.Азия посвящён разработке технологий оптимизации авиаметеорологического обслуживания, включая проектирование и перспективное создание нескольких автоматизированных авиаметеорологических систем:
- система выпуска высокодетальных прогностических карт явлений погоды для нижнего воздушного пространства по России и ближнему зарубежью;
- система верификации прогнозов TAF (выпускаемых синоптиками официальных АМСГ РФ и ближнего зарубежья) и AUTOTAF (выпускаемых сайтом Метеоцентр.Азия) - выявление ошибок, онлайн-сопоставление с фактической погодой METAR, автоматическое внесение коррективов в прогнозы при резком отклонении фактической погоды от прогноза, подсчёт оправдываемости прогнозов по элементам и в целом;
- система обработки, анализа и отображения авиаметеорологической информации для применения провайдерами метеорологической информации.

Рекомендуем: Растения

Погода в Ишиме - сегодня

Время (UTC), дата Ветер
(°,м/с) 
Видим.   Явления Облачность Т
(°С)
Тd
(°С)
f(%) Тe
(°С)
Pmin
(гПа)
dP
(гПа)
Po
(мм)
O2
(г/м3)
Тmin Tmax R s Состояние
почвы
15 25.05.17 310 (СЗ) 3{12}  20000 м    ясно 
+11.3 -5.3 31 +11  1017  1.5  755  293    +14.8       
18 25.05.17 тихо ()   10 км    ясно 
+3.3 +0.8 84 +3  1019.2  1.8  757  301           
21 25.05.17 тихо ()   10 км    ясно 
+0.8 -1.7 83 +1  1021.1  1.8  758  305           
00 26.05.17 тихо ()   20000 м    ясно 
+0.7 -0.7 90 +1  1023.1  760  305           
03 26.05.17 120 (ЮВ) 20000 м    ясно 
+10.8 +3.7 61 +12  1024.7  761  294  -0.7        сухая 
06 26.05.17 150 (ЮВ) 20000 м    ясно 
+14.7 -4.1 27 +15  1024.5  -0.1  761  291           
09 26.05.17 150 (ЮВ) 20000 м    ясно 
+16.5 -2.8 26 +16  1023.3  -1.1  760  289           
12 26.05.17 170 (Ю) 20000 м    ясно 
+18.1 -1.7 26 +18  1021.1  -2.1  759  287           
18 26.05.17 170 (Ю) 10 км    ясно 
+14.1 +3.9 50 +14  1018.4  -1.2  756  289           
21 26.05.17 180 (Ю) 10 км    ясно 
+13.4 +3.3 50 +13  1017.1  -1.3  755  290           
00 27.05.17 180 (Ю) 20000 м    ясно 
+12.5 +4.1 57 +12  1016.1  -1  755  290           
03 27.05.17 190 (Ю) 5{10}  20000 м    ясно 
+17.9 +3.5 38 +18  1015  -0.9  754  285  +12.1         
06 27.05.17 170 (Ю) 20000 м    4/0 верхняя 
[Ci fib]
+22.9 +4.7 31 +23  1013.2  -1.6  753  279           
09 27.05.17 170 (Ю) 5{11}  20000 м    10/0 средняя, верхняя 
[Ac trans|Ci fib]
+24.5 +3.1 25 +25  1011.4  -1.8  751  277           
12 27.05.17 150 (ЮВ) 20000 м    9/0 средняя 
[Ac trans]
+22.4 +1.4 25 +22  1009.1  -2.3  750  279           
15 27.05.17 080 (В) 4000 м  слаб. ливневой дождь  8/8 600 м кучево-дожд. 
[Cb cap]
+17.9 +6.1 46 +19  1006.1  -3.1  747  282    +25       
18 27.05.17 070 (В) 10 км  {ливн. осадки}  ясно 
+17 +5.9 48 +18  1003  -3.1  745  282           
21 27.05.17 110 (В) 10 км  {ливн. осадки}  3/3 600 м кучево-дожд. 
[Cb cap]
+17 +7.2 52 +18  999.6  -3.3  743  280           
00 28.05.17 170 (Ю) 20000 м  {ливн. осадки}  8/8 600 м кучево-дожд. 
[Cb cap]
+15.4 +8.3 63 +16  997.8  -1.8  741  281           
03 28.05.17 160 (Ю) 4000 м  слаб. ливневой дождь  10/10 600 м кучево-дожд. 
[Cb cap]
+14.3 +11.1 81 +18  997.6  -0.3  741  282  +14    0.6     
09 28.05.17 220 (ЮЗ) 20000 м  {ливн. осадки}  9/9 600 м кучево-дожд. 
[Cb cap]
+18.2 +13.8 75 +26  995.6  -0.1  740  277           
12 28.05.17 190 (Ю) 20000 м  {ливн. осадки}  10/3 600 м кучево-дожд., средняя, верхняя 
[Cb cap|Ac trans|Ci fib]
+20.8 +13.4 63 +27  996.1  0.5  740  274           
21 28.05.17 280 (З) 5{10}  10 км    10/10 600 м кучево-дожд. 
[Cb cap]
+9.9 +9.2 95 +9  1002  2.8  744  288           
00 29.05.17 320 (СЗ) 20000 м    10/10 1000 м 
[Sc]
+6.5 +5.2 91 +6  1003.1  745  292           
03 29.05.17 350 (С) 20000 м    10/10 600 м кучево-дожд. 
[Cb cap]
+5.9 +4.4 90 +4  1004.1  746  293  +5.6       
Время (UTC), дата Ветер
(°,м/с) 
Видим.   Явления Облачность Т
(°С)
Тd
(°С)
f(%) Тe
(°С)
Pmin
(гПа)
dP
(гПа)
Po
(мм)
O2
(г/м3)
Тmin Tmax R s Состояние
почвы

Для получения пояснительной информации подведите курсор к названию столбца.

ПОГОДА в Ишиме - архив

Всё, что Вы хотите узнать о погоде в Ишиме - удобно и подробно!

Выберите нужную дату (начиная с 1 января 2015* года) и нажмите кнопку "Найти".
Будут отображены архивные сводки погоды по пункту Ишим, начиная с указанной даты.


Отображать данные в формате CSV (для использования в таблицах Excel)


Внимание! Наш архив погоды предназначен исключительно для личного некоммерческого использования в познавательных целях. Если Вам необходимы официальные справки о состоянии погоды (для производственных, юридических, коммерческих и т.п. целей), обращайтесь в органы Росгидромета.

*Примечание: данная дата относится к архиву по метеостанциям СССР (Россия, СНГ, Балтия).
Архив по метеостанциям Зарубежной Европы и Азии (кроме Китая) хранится 10 дней, по другим регионам земного шара (Китай, Африка, Америка, Австралия, Океания) - 1 день.

Ишим - район местоположения метеостанции


Название, широта, долгота, высота метеостанции:
Ишим 56.1°ш. 69.4°д. 82 м над ур. моря [Российская Федерация]

Дополнительная информация

В oтличие oт бoльшинства пoгoдных сайтoв мы публикуем пoдрoбную метеoинфoрмацию в детальнoм прoфессиoнальнoм фoрмате.

Характеристики температуры и влажнoсти вoздуха измеряются на высoте 2 м в тени вдали oт зданий и деревьев.
Скoрoсть ветра измеряется на высoте 10 м (на урoвне рoста челoвека скoрoсть ветра ниже в 1.5-2 раза). Если метеoстанция нахoдится в гoрoде или в лесу, тo скoрoсть ветра занижена на 2-4 м/с пo сравнению с oткрытым местoм. Скoрoсть ветра над акватoриями крупных рек и oзёр, а также на вершинах хoлмoв на 2-5 м/с выше, чем в oбычных услoвиях.
Атмoсфернoе давление в разных тoчках местнoсти мoжет значительнo oтличаться oт давления на метеoстанции, в зависимoсти oт услoвий рельефа (при пoдъёме на 10 м давление пoнижается примернo на 1 мм рт.ст.).